Jerome, ID

9:47 PM MDT on May 20, 2018 (GMT -0600)
Jerome County

Weather History for KJER - December, 2012

Change the Weather History Date:

Saturday, December 29, 2012

  Actual Average Record
Temperature  
Mean Temperature 18 °F 26 °F  
Max Temperature 24 °F 33 °F 62 °F (1917)
Min Temperature 11 °F 19 °F -6 °F (1990)
Degree Days  
Heating Degree Days 47 39  
Month to date heating degree days 972 1100  
Since 1 July heating degree days 2176 2651  
Cooling Degree Days 0 0  
Month to date cooling degree days 0 0  
Year to date cooling degree days 750 510  
Moisture  
Dew Point 12 °F    
Average Humidity 76    
Maximum Humidity 84    
Minimum Humidity 68    
Precipitation  
Precipitation T in 0.03 in 0.61 in (2005)
Month to date precipitation 1.61 1.42  
Year to date precipitation 10.42 10.74  
Sea Level Pressure  
Sea Level Pressure 30.22 in    
Wind  
Wind Speed 14 mph (NE)    
Max Wind Speed 25 mph    
Max Gust Speed 32 mph    
Visibility 10 miles    
Events Snow    
T = Trace of Precipitation, MM = Missing Value Source: NWS Daily Summary

Daily Weather History Graph

Daily Weather History Graph

Search for Another Location

Airport or City:

Astronomy

Dec. 29, 2012 Rise Set
Actual Time 8:07 AM MST 5:12 PM MST
Civil Twilight 7:35 AM MST 5:44 PM MST
Nautical Twilight 7:00 AM MST 6:20 PM MST
Astronomical Twilight 6:25 AM MST 6:54 PM MST
Moon 6:52 PM MST (12/29) 8:41 AM MST (12/29)
Length of Visible Light 10h 08m
Length of Day
9h 04m
Full, 98% of the Moon is Illuminated
Dec 29
Full
Jan 4
Last Quarter
Jan 11
New
Jan 18
First Quarter
Jan 26
Full

Hourly Weather History & Observations

Time (MST) Temp. Windchill Dew Point Humidity Pressure Visibility Wind Dir Wind Speed Gust Speed Precip Events Conditions
12:53 AM 12.0 °F -6.9 °F 7.0 °F 80% 30.30 in 10.0 mi NE 21.9 mph - N/A   Clear
1:53 AM 12.0 °F -6.9 °F 8.1 °F 84% 30.30 in 10.0 mi NE 21.9 mph - N/A   Clear
2:53 AM 12.0 °F -5.6 °F 8.1 °F 84% 30.30 in 10.0 mi NE 18.4 mph - N/A   Clear
3:53 AM 12.0 °F -5.6 °F 8.1 °F 84% 30.31 in 10.0 mi NE 18.4 mph - N/A   Clear
4:53 AM 12.9 °F -2.8 °F 9.0 °F 84% 30.32 in 10.0 mi NE 15.0 mph - N/A   Clear
5:53 AM 15.1 °F -2.9 °F 10.0 °F 80% 30.30 in 10.0 mi NE 21.9 mph - N/A   Clear
6:53 AM 15.1 °F -2.0 °F 10.0 °F 80% 30.30 in 10.0 mi NE 19.6 mph - N/A   Clear
7:53 AM 16.0 °F -1.3 °F 10.9 °F 81% 30.27 in 10.0 mi NE 20.7 mph - N/A   Scattered Clouds
8:53 AM 16.0 °F -0.9 °F 10.9 °F 81% 30.28 in 10.0 mi NE 19.6 mph - N/A   Mostly Cloudy
9:53 AM 18.0 °F 0.9 °F 10.9 °F 74% 30.27 in 10.0 mi NE 21.9 mph - N/A   Scattered Clouds
10:53 AM 19.9 °F 4.3 °F 12.9 °F 74% 30.27 in 10.0 mi NE 19.6 mph - N/A   Partly Cloudy
11:53 AM 21.0 °F 6.6 °F 14.0 °F 74% 30.24 in 10.0 mi NE 17.3 mph - N/A   Clear
12:53 PM 23.0 °F 11.1 °F 15.1 °F 72% 30.20 in 10.0 mi NE 12.7 mph - N/A   Clear
1:53 PM 24.1 °F 12.0 °F 16.0 °F 71% 30.18 in 10.0 mi ENE 13.8 mph - N/A   Clear
2:53 PM 24.1 °F 12.5 °F 16.0 °F 71% 30.16 in 10.0 mi ENE 12.7 mph - N/A   Clear
3:53 PM 21.9 °F 11.7 °F 15.1 °F 75% 30.15 in 10.0 mi ENE 9.2 mph - N/A   Mostly Cloudy
4:53 PM 21.9 °F 11.7 °F 16.0 °F 78% 30.13 in 10.0 mi ENE 9.2 mph - N/A   Overcast
5:53 PM 21.9 °F 11.7 °F 15.1 °F 75% 30.12 in 10.0 mi ENE 9.2 mph - N/A   Overcast
6:53 PM 21.9 °F 11.7 °F 15.1 °F 75% 30.12 in 10.0 mi ENE 9.2 mph - N/A   Overcast
7:53 PM 19.9 °F 9.3 °F 14.0 °F 78% 30.12 in 10.0 mi NE 9.2 mph - N/A   Overcast
8:53 PM 19.9 °F 11.1 °F 14.0 °F 78% 30.12 in 10.0 mi NE 6.9 mph - N/A   Overcast
9:53 PM 19.9 °F 13.4 °F 14.0 °F 78% 30.12 in 10.0 mi North 4.6 mph - N/A   Overcast
11:53 PM 19.0 °F 12.3 °F 15.1 °F 85% 30.13 in 5.0 mi NE 4.6 mph - 0.00 in Snow Light Snow